Location: Newark
(49.3000°N, 9.4667°E)
Time: 17:00:19
(UTC+00:00)

S-56A Canister/Altair - All Passes

Search period start: 19 May 2019 00:00
Search period end: 29 May 2019 00:00
Orbit: 633 x 2500 km, 38.9° (Epoch: 17 May)

Date Brightness Start Highest point End Pass type
(mag) Time Alt. Az. Time Alt. Az. Time Alt. Az.
19 May - 00:29:21 10° SSE 00:33:10 14° SE 00:37:40 10° ESE visible
19 May - 02:28:16 10° SW 02:35:36 38° SSE 02:46:02 10° E visible
19 May - 04:30:32 10° WSW 04:39:41 50° S 04:52:34 10° ESE daylight
19 May - 06:34:11 10° W 06:44:33 41° SSW 06:57:42 10° SE daylight
19 May - 08:39:55 10° W 08:49:00 22° SW 08:59:06 10° S daylight
19 May - 23:58:49 10° SE 00:00:41 11° SE 00:02:42 10° ESE visible
20 May - 01:56:06 10° SW 02:02:50 34° SSE 02:12:19 10° E visible
20 May - 03:58:03 10° WSW 04:06:37 49° S 04:18:55 10° ESE daylight
20 May - 06:01:26 10° W 06:11:20 42° SSW 06:24:19 10° SE daylight
20 May - 08:06:39 10° W 08:15:52 24° SW 08:26:25 10° S daylight
21 May - 01:24:01 10° SSW 01:30:08 30° SSE 01:38:36 10° E visible
21 May - 03:25:38 10° WSW 03:33:38 47° S 03:45:16 10° ESE daylight
21 May - 05:28:46 10° W 05:38:10 43° SSW 05:50:52 10° SE daylight
21 May - 07:33:32 10° W 07:42:42 26° SW 07:53:34 10° SSE daylight
22 May - 00:52:03 10° SSW 00:57:30 26° SSE 01:04:54 10° E visible
22 May - 02:53:17 10° WSW 03:00:43 45° S 03:11:36 10° ESE visible
22 May - 04:56:11 10° W 05:05:03 43° SSW 05:17:22 10° SE daylight
22 May - 07:00:34 10° W 07:09:35 27° SSW 07:20:36 10° SSE daylight
23 May - 00:20:09 10° SSW 00:24:57 22° SE 00:31:11 10° E visible
23 May - 02:20:59 10° SW 02:27:52 42° SSE 02:37:58 10° ESE visible
23 May - 04:23:39 10° WSW 04:32:00 44° S 04:43:51 10° SE daylight
23 May - 06:27:41 10° W 06:36:28 29° SSW 06:47:31 10° SSE daylight
23 May - 08:37:41 10° WSW 08:40:22 11° SW 08:43:11 10° SW daylight
23 May - 23:48:26 10° S 23:52:27 18° SE 23:57:27 10° ESE visible
24 May - 01:48:44 10° SW 01:55:07 39° SSE 02:04:23 10° ESE visible
24 May - 03:51:11 10° WSW 03:59:01 43° S 04:10:18 10° ESE daylight
24 May - 05:54:56 10° W 06:03:23 30° SSW 06:14:21 10° SSE daylight
24 May - 08:03:02 10° WSW 08:07:23 12° SW 08:12:04 10° SSW daylight
24 May - 23:16:56 10° S 23:20:00 14° SE 23:23:34 10° ESE visible
25 May - 01:16:33 10° SW 01:22:25 35° SSE 01:30:49 10° ESE visible
25 May - 03:18:46 10° WSW 03:26:05 43° S 03:36:45 10° ESE daylight
25 May - 05:22:15 10° W 05:30:21 31° SSW 05:41:06 10° SSE daylight
25 May - 07:29:13 10° WSW 07:34:23 14° SW 07:40:08 10° SSW daylight
25 May - 22:46:05 10° SSE 22:47:34 11° SE 22:49:09 10° ESE visible
26 May - 00:44:25 10° SW 00:49:47 32° SSE 00:57:18 10° ESE visible
26 May - 02:46:25 10° WSW 02:53:14 42° S 03:03:13 10° ESE visible
26 May - 04:49:40 10° W 04:57:21 32° SSW 05:07:48 10° SE daylight
26 May - 06:55:47 10° WSW 07:01:25 15° SW 07:07:51 10° S daylight
27 May - 00:12:19 10° SW 00:17:14 28° SSE 00:23:51 10° ESE visible
27 May - 02:14:06 10° WSW 02:20:27 40° S 02:29:43 10° ESE visible
27 May - 04:17:08 10° WSW 04:24:25 33° SSW 04:34:28 10° SE daylight
27 May - 06:22:36 10° WSW 06:28:27 16° SW 06:35:18 10° S daylight
27 May - 23:40:18 10° SSW 23:44:42 24° SSE 23:50:27 10° ESE visible
28 May - 01:41:49 10° WSW 01:47:43 39° S 01:56:15 10° ESE visible
28 May - 03:44:40 10° WSW 03:51:31 33° SSW 04:01:07 10° SE daylight
28 May - 05:49:37 10° WSW 05:55:30 17° SSW 06:02:35 10° S daylight
28 May - 23:08:21 10° SSW 23:12:14 21° SSE 23:17:04 10° ESE visible
